Location: Rounton
(54.4000°N, 1.3500°W)
Time: 16:43:35
(UTC+00:00)

Transit 2A Rocket - Pass Details

Date: 29 November 2021
Orbit: 584 x 917 km, 66.7° (Epoch: 23 January)

Event Time Altitude Azimuth Distance (km) Brightness Sun altitude
Rises 16:49:21 0° 317° (NW) 3,564 8.7 -8.6°
Reaches altitude 10° 16:51:53 10° 317° (NW) 2,622 8.0 -8.9°
Maximum altitude 16:58:04 84° 231° (SW) 918 5.5 -9.7°
Drops below altitude 10° 17:03:59 10° 144° (SE) 2,518 7.5 -10.5°
Sets 17:06:24 0° 144° (SE) 3,414 8.2 -10.8°
